Preview of NWS' New Version of Forecast
This preview is not operational and should not be used for support decisions.

Regional Weather Roundup (RWR)

Issued by National Weather Service (NWS)

                            
000
ASUS42 KTBW 230515
RWRFL 
FLORIDA REGIONAL WEATHER ROUNDUP
NATIONAL WEATHER SERVICE TAMPA BAY RUSKIN FL
100 AM EDT SUN JUN 23 2019

NOTE: "FAIR" INDICATES FEW OR NO CLOUDS BELOW 12,000 FEET WITH NO
SIGNIFICANT WEATHER AND/OR OBSTRUCTIONS TO VISIBILITY.

FLZ001>010-012>015-112-114-115-230600-
PANHANDLE FLORIDA
  
CITY           SKY/WX    TMP DP  RH WIND       PRES   REMARKS
PENSACOLA      FAIR      81  79  94 SW5       30.10S                  
PENSACOLA NAS  FAIR      77  77 100 CALM      30.10S FOG              
CRESTVIEW      FAIR      78  75  90 CALM      30.12S FOG              
DUKE FIELD     FAIR      78  77  98 CALM      30.10F                  
VALPARAISO     FAIR      81  77  89 CALM      30.09F                  
MARY ESTHER    CLEAR     82  77  85 CALM      30.08F                  
TRI COUNTY     FAIR      78  77  96 NE8       30.13R                  
PANAMA CITY    FAIR      77  75  93 CALM      30.10S FOG              
TYNDALL AFB    FAIR      82  76  83 W5        30.10S                  
APALACHICOLA   FAIR      79  75  87 CALM      30.12R                  

STATION/POSITION SKY/WX   TEMP    WIND        PRES    WAVE   SWELL
                          AIR SEA DIR/SP/G            HT/PER HT/PER
                          (F)     (DEG/KT/KT) (MB)    (FT/S) (FT/S)
PANAMA CITY BEAC           84 83  250/  8/  9 1020.1R
TOWER C          NOT AVBL

$$
FLZ011-016>038-118-127-128-134-139-239-230600-
NORTH FLORIDA
  
CITY           SKY/WX    TMP DP  RH WIND       PRES   REMARKS
MARIANNA       MOCLDY    82  75  79 S8        30.11S                  
TALLAHASSEE    MOCLDY    80  71  74 N13G22    30.14R                  
PERRY          MOCLDY    80  77  90 NW6       30.13F                  
LIVE OAK       CLOUDY    79  72  78 NW7       30.14R                  
CROSS CITY     FAIR      78  77  95 CALM      30.13R FOG              
LAKE CITY      MOCLDY    79  75  89 NW12      30.14R                  
GAINESVILLE    FAIR      78  76  93 W6        30.14S                  
PALATKA        FAIR      79  77  94 W6        30.11F                  
MAYPORT NAS    TSTM      78  74  87 S10       30.10F                  
JACKSONVILLE   CLOUDY    74  71  91 NW5       30.11S                  
JAX NAS        MOCLDY    84  74  71 W9        30.11S                  
JAX CECIL      MOCLDY    81  77  89 N3        30.12R                  
FERNANDINA BEA LGT RAIN  78  70  76 W3        30.11R                  
ST AUGUSTINE   CLOUDY    81  64  56 MISG      30.13R                  
PALM COAST     FAIR      75  72  90 CALM      30.11R                  

STATION/POSITION SKY/WX   TEMP    WIND        PRES    WAVE   SWELL
                          AIR SEA DIR/SP/G            HT/PER HT/PER
                          (F)     (DEG/KT/KT) (MB)    (FT/S) (FT/S)
SHELL POINT      NOT AVBL
KEATON BEACH               84     300/  9/ 12 1020.1R
CEDAR KEY                  83     290/  9/ 11 1019.9R
FERNANDINA                 83 84  250/  8/ 11 1020.1
30.7N   81.3W                 82                N/A     1/10
MAYPORT                    79 81  200/  7/ 10 1019.7
ST AUGUSTINE               81 78  310/  8/ 11 1019.9R

$$
FLZ040-043>046-052-053-057-058-063-144-230600-
INTERIOR CENTRAL FLORIDA
  
CITY           SKY/WX    TMP DP  RH WIND       PRES   REMARKS
OCALA          FAIR      78  77  96 CALM      30.13R                  
LEESBURG       FAIR      79  76  90 NW5       30.13R                  
SANFORD        FAIR      81  75  82 W6        30.11R                  
ORLANDO EXEC   FAIR      82  75  79 NW8       30.12R                  
ORLANDO INTL   FAIR      81  74  79 W8        30.11R                  
KISSIMMEE      FAIR      79  75  87 W6        30.13R                  
WINTER HAVEN   FAIR      80  75  84 W7        30.14R                  
LAKELAND       FAIR      77  73  88 N3        30.13S                  
BARTOW         FAIR      81  75  83 NW6       30.12R                  
SEBRING        FAIR      82  75  79 W3        30.11F                  
OKEECHOBEE     FAIR      79  73  83 CALM      30.10F                  

$$
FLZ041-047-054-059-064-141-147-230600-
EAST CENTRAL FLORIDA
  
CITY           SKY/WX    TMP DP  RH WIND       PRES   REMARKS
DAYTONA BEACH  MOCLDY    80  76  87 W6        30.11R                  
DELAND         FAIR      81  75  83 W5        30.11R                  
JFK SPACE CTR  FAIR      81  65  57 NW8       30.10R                  
CAPE CANAVERAL FAIR      82  24  12 NW8       30.09R                  
PATRICK AFB    FAIR      83  76  80 W9        30.09S                  
MELBOURNE      FAIR      81  74  79 SW6       30.09S                  
VERO BEACH     FAIR      83  77  82 S7        30.10S                  
FT PIERCE      FAIR      81  76  84 S5        30.10S                  
STUART         FAIR      82  75  78 S5        30.12S                  

STATION/POSITION SKY/WX   TEMP    WIND        PRES    WAVE   SWELL
                          AIR SEA DIR/SP/G            HT/PER HT/PER
                          (F)     (DEG/KT/KT) (MB)    (FT/S) (FT/S)
TRIDENT PIER               83 76  250/  5/  6 1019.9F
28.4N   80.5W                 74                N/A     1/ 8
27.5N   80.2W                 81                N/A     1

$$
FLZ050-056-061-142-242-148-248-149-249-151-251-155-255-
160-260-230600-
WEST CENTRAL FLORIDA
  
CITY           SKY/WX    TMP DP  RH WIND       PRES   REMARKS
CRYSTAL RIVER  FAIR     N/A N/A N/A CALM      30.13R                  
INVERNESS      FAIR      75  75 100 CALM      30.13S FOG              
BROOKSVILLE    FAIR      75  73  93 CALM      30.14R FOG              
CLEARWATER AIR FAIR      79  73  83 CALM      30.12F                  
ST PETE CLEARW FAIR      79  75  87 W5        30.12R                  
TAMPA INTL     FAIR      82  76  81 CALM      30.12S                  
PLANT CITY       N/A    N/A N/A N/A MISG        N/A                   
MACDILL AFB    FAIR      80  76  85 CALM      30.12R                  
PETER O KNIGHT CLOUDY    82  79  89 CALM      30.12S                  
ST PETERSBURG  FAIR      84  76  76 NW5       30.11R                  
SARASOTA       FAIR      81  75  82 CALM      30.10S                  
VENICE         FAIR      82  77  83 CALM      30.12S                  

STATION/POSITION SKY/WX   TEMP    WIND        PRES    WAVE   SWELL
                          AIR SEA DIR/SP/G            HT/PER HT/PER
                          (F)     (DEG/KT/KT) (MB)    (FT/S) (FT/S)
27.3N   84.2W                 86                N/A     1/ 4
CLEARWATER BEACH           85 90  290/  6/  7 1020.2R
MIDDLE TAMPA BAY           84     340/  4/  5 1020.0F
VENICE                     83 86   40/  4/  4 1019.7S

$$
FLZ066-069-070-075>078-162-262-165-265-230600-
SOUTHWEST FLORIDA AND KEYS
  
CITY           SKY/WX    TMP DP  RH WIND       PRES   REMARKS
PUNTA GORDA    FAIR      79  76  90 N3        30.13S                  
FT MYERS       FAIR      83  72  69 NE3       30.10F                  
SOUTHWEST INTL FAIR      83  75  77 CALM      30.11F                  
NAPLES         FAIR      86  79  79 CALM      30.11F HX  99           
IMMOKALEE      FAIR      81  77  89 CALM      30.10S                  
MARATHON       FAIR      84  76  76 E6        30.10S                  
KEY WEST NAS   FAIR      85  76  74 SE8       30.10S                  
KEY WEST INTL  FAIR      84  77  79 E9        30.11R                  

STATION/POSITION SKY/WX   TEMP    WIND        PRES    WAVE   SWELL
                          AIR SEA DIR/SP/G            HT/PER HT/PER
                          (F)     (DEG/KT/KT) (MB)    (FT/S) (FT/S)
NAPLES                     86 89              1020.0S
DRY TORTUGAS     NOT AVBL

$$
FLZ067-068-071>074-168-172>174-230600-
SOUTHEAST FLORIDA 
  
CITY           SKY/WX    TMP DP  RH WIND       PRES   REMARKS
W PALM BEACH   FAIR      83  76  79 S5        30.12F                  
FT LAUDER-EXEC FAIR      83  77  82 CALM      30.12S                  
FT LAUDERDALE  MOCLDY    84  77  79 CALM      30.12R                  
POMPANO BEACH  FAIR      84  77  79 S3        30.12S                  
PEMBROKE PINES MOCLDY    85  76  74 CALM      30.14R                  
OPA LOCKA      MOCLDY    85  76  74 CALM      30.13S                  
MIAMI          MOCLDY    84  75  74 CALM      30.12S                  
WEST KENDALL   FAIR      80  77  90 NW3       30.12R                  
HOMESTEAD      FAIR      82  77  85 CALM      30.10S                  

STATION/POSITION SKY/WX   TEMP    WIND        PRES    WAVE   SWELL
                          AIR SEA DIR/SP/G            HT/PER HT/PER
                          (F)     (DEG/KT/KT) (MB)    (FT/S) (FT/S)
VIRGINIA KEY               84 89  140/  4/  5 1019.2
LAKE WORTH                 83 84  190/  6/  7 1021.1S
FOWEY ROCKS                83 83  140/  5/  5 1020.1R
SETTLEMENT POINT           85     210/  5/  6 1019.8F

$$